Regional Weather Roundup
Issued by NWS

Home | Current Version | Previous Version | Graphics & Text | Print | Product List | Glossary On
Versions: 1 2 3 4 5 6 7 8 9 10 11 12 13 14 15 16 17 18 19 20 21 22 23 24 25 26 27 28 29 30 31 32 33 34 35 36 37 38 39 40 41 42 43 44 45 46 47 48 49 50
000
ASUS43 KMPX 010910
RWRMN
WEATHER ROUNDUP FOR MINNESOTA
NATIONAL WEATHER SERVICE TWIN CITIES/CHANHASSEN MN
400 AM CDT SAT OCT 01 2016


NOTE: "FAIR" INDICATES FEW OR NO CLOUDS BELOW 12,000 FEET WITH NO
SIGNIFICANT WEATHER AND/OR OBSTRUCTIONS TO VISIBILITY. N/A MEANS
CURRENT SKY AND/OR WEATHER CONDITIONS ARE NOT AVAILABLE.

MNZ060>063-068>070-011000-
   Twin Cities Metro

CITY           SKY/WX    TMP DP  RH WIND       PRES   REMARKS
TWIN CITIES    CLEAR     55  51  86 NE3       30.18F
ST PAUL        CLEAR     54  51  90 CALM      30.19F
CRYSTAL        CLEAR     51  49  92 N3        30.18S
BLAINE         CLEAR     52  52 100 CALM      30.19S
LAKEVILLE      CLEAR     54  54 100 CALM      30.18S
EDEN PRAIRIE   CLEAR     56  52  86 NE6       30.17S
LAKEVILLE      CLEAR     54  54 100 CALM      30.18S
SOUTH ST PAUL  CLEAR     56  52  87 CALM      30.17F
LAKE ELMO      FAIR      54  52  94 NE3       30.19F
$$
MNZ001>005-007-008-013>017-022>024-027-028-011000-
   Northwest Minnesota

CITY           SKY/WX    TMP DP  RH WIND       PRES   REMARKS
BEMIDJI        CLOUDY    48  48  99 SE5       30.23S FOG
HALLOCK        PTCLDY    55  52  88 SE9       30.17S
ROSEAU         PTCLDY    48  45  87 CALM      30.21F
WARROAD        MOCLDY    50  46  87 SE5       30.22F
THIEF RVR FALL MOCLDY    49  46  90 E8        30.20F
CROOKSTON      CLOUDY    52  48  87 SE8       30.18F
FOSSTON        PTCLDY    46  43  87 SE3       30.21S
DETROIT LAKES  CLEAR     50  46  87 SE5       30.21S
MOORHEAD       PTCLDY    52  48  87 SE5       30.18S
PARK RAPIDS    FOG       49  46  90 SE5       30.22F VSB 1/2
MAHNOMEN       FAIR      48  46  91 SE6       30.19S
$$
MNZ006-009>011-018-025>026-011000-
   North Central Minnesota

CITY           SKY/WX    TMP DP  RH WIND       PRES   REMARKS
BAUDETTE       MOCLDY    46  45  96 SE5       30.24F
FLAG ISLAND    CLOUDY    55  52  88 S12       30.22F
INTL FALLS     CLOUDY    40  40 100 CALM      30.26S
WASKISH        PTCLDY    43  43 100 CALM      30.24S
BIG FORK       MOCLDY    37  37 100 CALM      30.25S FOG
LONGVILLE      CLOUDY    48  48 100 CALM      30.23F
GRAND RAPIDS   CLOUDY    48  48 100 SE3       30.26S FOG
CRANE LAKE     CLEAR     34  34 100 CALM      30.28F
ORR            PTCLDY    37  36  93 CALM      30.24S
COOK           CLEAR     39  37  93 CALM      30.26S
WALKER         CLOUDY    49  49  98 S3        30.23F
$$
MNZ012-019>021-037-011000-
   Northeast Minnesota

CITY           SKY/WX    TMP DP  RH WIND       PRES   REMARKS
DULUTH         FOG       51  51 100 E8        30.24F VSB 1
ELY            CLEAR     43  43 100 CALM      30.26S
HIBBING        CLEAR     37  37 100 NW3       30.25S
EVELETH        CLEAR     42  42  97 CALM      30.26S
DULUTH HARBOR  CLOUDY    54  52  94 E9        30.25F
TWO HARBORS    CLEAR     48  45  87 NE3       30.23F
SILVER BAY     CLEAR     46  45  93 CALM      30.24S
GRAND MARAIS     N/A     57  46  66 NE5       30.24F
G MARAIS ARPRT CLEAR     46  39  76 N6        30.28S
$$
MNZ029>031-032-039>041-046>048-054>057-064-011000-
   West Central Minnesota

CITY           SKY/WX    TMP DP  RH WIND       PRES   REMARKS
FERGUS FALLS   CLOUDY    54  50  87 E7        30.21S
MORRIS         CLEAR     48  46  93 E8        30.17F
ALEXANDRIA     MOCLDY    50  50 100 E9        30.21F FOG
ELBOW LAKE     FAIR      51  50  97 SE8       30.19S
WADENA         DRZL/FOG  48  48 100 SE9       30.21F VSB 1/2
GLENWOOD       FOG       48  48 100 NE7       30.21S VSB 1/4
BENSON         CLEAR     52  48  87 E5        30.18F
ORTONVILLE     PTCLDY    48  45  87 CALM      30.17F
MADISON        PTCLDY    48  46  93 E3        30.17F
WILLMAR        FAIR      54  52  94 E5        30.20S
$$
MNZ033>034-036-042>043-049>051-058-059-011000-
   Central Minnesota

CITY           SKY/WX    TMP DP  RH WIND       PRES   REMARKS
ST CLOUD       CLOUDY    52  52 100 E3        30.20F
SAUK CENTRE    CLOUDY    50  50 100 E5        30.21S FOG
PAYNESVILLE    CLOUDY    50  50 100 CALM      30.21S FOG
AITKIN         CLOUDY    52  46  82 NE3       30.22S FOG
PINE RIVER     CLOUDY    52  52 100 SE3       30.26S
BRAINERD       CLOUDY    52  51  97 CALM      30.23S
STAPLES        CLOUDY    50  50 100 CALM      30.22F FOG
LONG PRAIRIE   SNOW      50  50 100 NE3       30.22S VSB 1/2
LITTLE FALLS   CLOUDY    52  50  93 CALM      30.22S
LITCHFIELD     CLEAR     54  52  94 CALM      30.20S
BUFFALO        CLEAR     52  50  92 NE3       30.20S
MAPLE LAKE     CLOUDY    52  52  99 NE3       30.20F
HUTCHINSON     PTCLDY    53  53  97 NE5       30.19F
$$
MNZ037-044-045-052-053-011000-
   East Central Minnesota

CITY           SKY/WX    TMP DP  RH WIND       PRES   REMARKS
PRINCETON        N/A     54  52  94 N3        30.21S
MORA           CLOUDY    50  50 100 CALM      30.23F
CAMBRIDGE      MOCLDY    54  50  87 CALM      30.19F
MOOSE LAKE     CLOUDY    50  48  93 NE3       30.22S
HINCKLEY       CLOUDY    50  50 100 N5        30.23S
CLOQUET        CLOUDY    52  48  87 E5        30.24S FOG
MCGREGOR       CLOUDY    50  48  93 E6        30.24S
$$
MNZ071>073-080-081-089-090-097-098-011000-
   Southwest Minnesota

CITY           SKY/WX    TMP DP  RH WIND       PRES   REMARKS
MONTEVIDEO     CLEAR     46  45  93 E3        30.19F
GRANITE FALLS  CLEAR     47  45  93 CALM      30.19F
CANBY          MOCLDY    46  45  94 CALM      30.18F
MARSHALL       CLOUDY    47  45  93 CALM      30.18S
REDWOOD FALLS  MOCLDY    54  50  86 CALM      30.18S
OLIVIA         CLEAR     50  46  87 NE7       30.17F
PIPESTONE      CLEAR     52  48  87 E3        30.17F
WINDOM         CLOUDY    57  52  82 NE5       30.17S
WORTHINGTON    CLOUDY    55  52  89 CALM      30.18F
JACKSON        CLOUDY    59  52  77 CALM      30.17S
TRACY          CLOUDY    56  52  87 CALM      30.17F
SLAYTON        CLOUDY    48  46  93 CALM      30.19S
$$
MNZ065>067-074>077-082>085-091>093-011000-
   South Central Minnesota

CITY           SKY/WX    TMP DP  RH WIND       PRES   REMARKS
MANKATO        CLEAR     57  54  89 NE5       30.17S
NEW ULM        CLEAR     54  52  94 NE3       30.17S
ST JAMES       MOCLDY    55  52  88 NW6       30.17F
FAIRMONT       CLEAR     55  53  93 CALM      30.16F
GLENCOE        PTCLDY    53  53 100 N3        30.17F
FARIBAULT      MOCLDY    55  54  94 N3        30.17F
OWATONNA       CLOUDY    59  54  82 CALM      30.16F
WASECA         CLOUDY    55  52  88 NE5       30.18S
ALBERT LEA     CLOUDY    61  55  82 CALM      30.16S
$$
MNZ078>079-086>088-094>096-011000-
   Southeast Minnesota

CITY           SKY/WX    TMP DP  RH WIND       PRES   REMARKS
ROCHESTER      CLOUDY    60  57  89 NE8       30.16S
RED WING       CLOUDY    59  54  82 CALM      30.16S
DODGE CENTER   CLOUDY    59  54  82 NE3       30.16F
WINONA         CLOUDY    61  55  82 CALM      30.15F
AUSTIN         CLOUDY    61  54  77 CALM      30.15S
PRESTON        CLOUDY    56  55  94 N6        30.15F FOG
$$
ABBREVIATIONS USED IN REMARKS
   TC - TEMPERATURES IN CELSIUS
  WCI - WIND CHILL INDEX
   HX - HEAT INDEX
  VSB - VISIBILITY
$$




USA.gov is the U.S. government's official web portal to all federal, state and local government web resources and services.